Location: Ammerl�gen
(47.2167°N, 9.6000°E)
Time: 12:02:49
(UTC+00:00)

Cosmos 676 Rocket - Pass Details

Date: 04 August 2021
Orbit: 755 x 783 km, 74.0° (Epoch: 26 September)

Event Time Altitude Azimuth Distance (km) Brightness Sun altitude
Exits shadow 00:13:36 29° 117° (ESE) 1,405 5.2 -24.7°
Maximum altitude 00:14:23 30° 100° (E) 1,368 5.3 -24.7°
Drops below altitude 10° 00:18:59 10° 41° (NE) 2,347 7.3 -24.5°
Sets 00:21:36 0° 31° (NNE) 3,278 8.5 -24.4°
